EW8061 Weather Reports


time (UTC)temp
F
wind
direction
speed
knots
gust
knots
rain 1hr
in
rain 24hr
in
rain mn
in
humidity
%
barometer
mb
20260506174530 50 292 0.9 4.3 0.00 0.00 0.00 91 1008.7
20260506173028 50 293 0.0 2.6 0.00 0.00 0.00 91 1008.5
20260506171535 50 293 0.9 7.0 0.00 0.00 0.00 91 1008.4
20260506170024 50 288 2.6 10.4 0.00 0.00 0.00 91 1008.2
20260506164525 50 284 2.6 7.0 0.00 0.00 0.00 91 1008.2
20260506163037 50 284 2.6 7.8 0.00 0.00 0.00 91 1008.1
20260506161522 50 298 1.7 6.1 0.00 0.00 0.00 90 1008.1
20260506160023 50 292 2.6 9.6 0.00 0.00 0.00 90 1008.0
20260506154524 50 281 0.9 8.7 0.00 0.00 0.00 91 1007.9
20260506153016 50 290 0.9 7.8 0.00 0.00 0.00 91 1007.8
20260506151515 50 284 1.7 6.1 0.00 0.00 0.00 91 1007.7
20260506150015 50 285 2.6 7.8 0.00 0.00 0.00 91 1007.6
20260506144516 50 302 4.3 10.4 0.00 0.00 0.00 91 1007.7
20260506143016 50 307 4.3 10.4 0.00 0.00 0.00 91 1007.5
20260506141510 50 303 4.3 11.3 0.00 0.00 0.00 91 1007.5
20260506140008 50 281 5.2 9.6 0.00 0.00 0.00 91 1007.4
20260506134507 51 306 6.1 10.4 0.00 0.00 0.00 91 1007.4
20260506133006 51 294 5.2 9.6 0.00 0.00 0.00 91 1007.3
20260506131503 51 304 6.1 10.4 0.00 0.00 0.00 91 1007.2
20260506130106 52 284 1.7 7.8 0.00 0.00 0.00 91 1007.2
20260506124600 52 282 2.6 9.6 0.00 0.00 0.00 90 1007.1
20260506123055 53 279 5.2 10.4 0.00 0.00 0.00 89 1006.8
20260506121603 53 294 4.3 8.7 0.00 0.00 0.00 91 1006.7
20260506120108 53 303 5.2 8.7 0.00 0.00 0.00 90 1006.6
20260506114608 53 294 0.9 8.7 0.00 0.00 0.00 90 1006.6
20260506113052 53 288 3.5 8.7 0.00 0.00 0.00 91 1006.5
20260506111553 53 291 0.9 7.0 0.00 0.00 0.00 92 1006.4
20260506110049 53 284 2.6 8.7 0.00 0.00 0.00 91 1006.4
20260506104548 54 296 3.5 7.0 0.00 0.00 0.00 90 1006.3
20260506103048 54 288 1.7 8.7 0.00 0.00 0.00 88 1006.3
20260506101547 55 314 2.6 7.8 0.00 0.00 0.00 86 1005.9
20260506100049 55 295 0.9 6.1 0.00 0.00 0.00 85 1005.7
20260506094547 55 290 0.9 6.1 0.00 0.01 0.00 87 1005.7
20260506093105 55 288 1.7 7.8 0.00 0.01 0.00 83 1005.7
20260506091547 56 297 3.5 8.7 0.00 0.01 0.00 82 1005.5
20260506090046 56 313 4.3 10.4 0.00 0.01 0.00 80 1005.4
20260506084543 56 277 2.6 7.0 0.00 0.01 0.00 79 1005.2
20260506083043 56 274 0.9 7.8 0.00 0.01 0.00 79 1005.1
20260506081538 56 288 0.9 6.1 0.00 0.01 0.00 80 1005.1
20260506073033 55 192 0.0 6.1 0.00 0.01 0.00 82 1005.3
20260506071529 54 185 4.3 9.6 0.00 0.01 0.00 83 1005.1
20260506061519 52 153 0.0 2.6 0.00 0.01 0.00 90 1005.1
20260506044505 51 153 0.0 0.0 0.00 0.02 0.00 90 1005.2
20260506043004 51 153 0.0 0.0 0.00 0.02 0.00 90 1005.1
20260506041504 51 153 0.0 0.0 0.00 0.02 0.00 90 1005.0
20260506040003 51 153 0.0 1.7 0.00 0.02 0.00 90 1005.0
20260506034504 51 153 0.0 2.6 0.00 0.02 0.00 90 1004.9
20260506033002 51 153 0.0 0.9 0.00 0.02 0.00 90 1005.1
20260506031603 51 153 0.0 1.7 0.00 0.02 0.00 91 1005.3
20260506030100 51 153 0.0 2.6 0.00 0.02 0.00 91 1005.3
20260506024610 51 153 0.9 6.1 0.00 0.02 0.00 91 1005.3
20260506023058 51 152 0.0 6.1 0.00 0.02 0.00 91 1005.3
20260506021556 51 153 0.0 6.1 0.00 0.02 0.00 92 1005.4
20260506020122 51 153 0.0 7.8 0.00 0.02 0.00 92 1005.6
20260506014555 51 128 0.9 4.3 0.00 0.02 0.00 92 1005.6
20260506013054 51 128 0.0 3.5 0.00 0.02 0.00 92 1005.6
20260506011553 50 128 0.0 0.9 0.00 0.02 0.00 92 1005.5
20260506010053 50 128 0.9 4.3 0.00 0.02 0.00 91 1005.6
20260506004551 50 128 1.7 4.3 0.00 0.02 0.00 91 1005.8
20260506003050 49 127 0.0 4.3 0.00 0.02 0.00 91 1005.7
20260506001556 49 127 0.9 4.3 0.00 0.02 0.00 90 1005.9
20260506000057 50 127 0.0 1.7 0.00 0.02 0.00 90 1006.0
20260505234544 50 127 0.0 3.5 0.00 0.02 0.00 90 1005.9
20260505233047 51 127 0.9 6.1 0.00 0.02 0.00 90 1006.1
20260505231538 51 128 0.0 4.3 0.00 0.02 0.00 90 1006.1
20260505230043 52 128 0.0 3.5 0.00 0.02 0.00 89 1006.4
20260505224543 52 127 3.5 7.0 0.00 0.02 0.00 89 1006.3
20260505223038 52 138 1.7 7.0 0.00 0.02 0.00 89 1006.3
20260505221530 53 138 0.9 4.3 0.00 0.02 0.00 89 1006.3
20260505220028 53 138 0.9 4.3 0.00 0.02 0.00 89 1006.4
20260505214528 53 140 1.7 7.0 0.00 0.02 0.02 89 1006.6
20260505213029 53 144 1.7 7.0 0.00 0.02 0.02 89 1006.6
20260505211531 54 145 0.0 4.3 0.00 0.02 0.02 89 1006.5
20260505210025 53 145 0.0 0.9 0.00 0.02 0.02 88 1006.5
20260505204525 54 145 0.0 0.0 0.00 0.02 0.02 88 1006.3
20260505203025 54 145 0.0 3.5 0.00 0.02 0.02 87 1006.2
20260505201524 55 145 0.0 0.0 0.00 0.02 0.02 86 1006.1
20260505200023 55 145 0.0 0.0 0.00 0.02 0.02 86 1005.9
20260505194523 56 145 0.0 3.5 0.00 0.02 0.02 86 1005.9
20260505193022 56 145 0.0 3.5 0.00 0.02 0.02 87 1005.9
20260505191525 57 145 0.9 4.3 0.00 0.02 0.02 86 1005.6
20260505190022 58 145 0.0 3.5 0.00 0.02 0.02 86 1005.6
20260505184523 58 145 0.0 2.6 0.00 0.02 0.02 86 1005.4
20260505183023 59 145 0.9 4.3 0.00 0.02 0.02 87 1005.3
20260505181522 59 145 0.0 0.0 0.00 0.02 0.02 86 1005.2
20260505180019 60 145 0.0 0.0 0.00 0.02 0.02 86 1005.2